Location: Cran-Gévrier
(45.9039°N, 6.1012°E)
Time: 04:55:48
(UTC+00:00)

Cosmos 2333 - Pass Details

Date: 09 February 2023
Orbit: 828 x 867 km, 70.9° (Epoch: 29 March)

Event Time Altitude Azimuth Distance (km) Brightness Sun altitude
Rises 17:12:24 0° 193° (SSW) 3,360 7.8 -4.1°
Reaches altitude 10° 17:14:50 10° 190° (S) 2,434 7.0 -4.5°
Maximum altitude 17:20:19 61° 111° (ESE) 952 4.3 -5.4°
Drops below altitude 10° 17:25:53 10° 33° (NNE) 2,473 6.2 -6.4°
Sets 17:28:23 0° 30° (NNE) 3,418 6.9 -6.8°
